Other Public Products
Issued by NWS Grand Forks, ND

Home | Current Version | Previous Version | Graphics & Text | Print | Product List | Glossary On
Versions: 1 2 3 4 5 6 7 8 9 10 11 12 13 14 15 16 17 18 19 20 21 22 23 24 25 26 27 28 29 30 31 32 33 34 35 36 37 38 39 40 41 42 43 44 45 46 47 48 49 50
000
FPUS83 KFGF 242110
OPUFGF
PRAIRIE TO PINES WEATHER ROUNDUP
NATIONAL WEATHER SERVICE EASTERN NORTH DAKOTA/GRAND FORKS ND
400 PM CDT FRI OCT 24 2014

 **SATELLITE DATA USED TO AUGMENT SKY COVER AT AUTOMATED STATIONS**
 *****  WEATHER ACROSS EASTERN NORTH DAKOTA  *****

CITY           SKY/WX    TMP DP  RH WIND       PRES   REMARKS
GRAND FORKS    MOSUNNY   72  39  30 W17G30    29.74R
GRAND FORKS AF SUNNY     72  39  30 W17G30    29.75R
GRAND CITY NWS   N/A     72 N/A N/A W31         N/A
BUXTON         NOT AVBL
DEVILS LAKE    SUNNY     66  30  26 W28G36    29.78R
FARGO          SUNNY     77  41  27 W21       29.77R
WAHPETON ARPT  CLEAR     73  36  25 W14       29.81R
$$

 *****  WEATHER ACROSS CENTRAL AND WESTERN NORTH DAKOTA  *****

CITY           SKY/WX    TMP DP  RH WIND       PRES   REMARKS
JAMESTOWN      SUNNY     71  40  32 W20       29.83R
BISMARCK       MOSUNNY   68  35  29 W20G29    29.91R
MINOT          SUNNY     65  27  23 W23G37    29.85R
MINOT AFB      SUNNY     64  31  28 W28G33    29.83R
GARRISON         N/A     65  28  24 W22G33    29.89R
WILLISTON      MOSUNNY   61  28  28 W23       29.93R
DICKINSON      CLOUDY    59  31  34 W16G24    29.96R
HETTINGER      CLOUDY    64  30  27 NW20      30.00S
$$

 *****  OTHER OBSERVATIONS NORTHEAST NORTH DAKOTA  *****

CITY           SKY/WX    TMP DP  RH WIND       PRES   REMARKS
WALHALLA         N/A     68  30  24 W25G40    29.69R
LANGDON        FAIR      66  30  26 W33G39    29.73R
CAVALIER       FAIR      70  34  26 W23G33    29.70R
GRAFTON        FAIR      68  36  30 W31G38    29.72R
CANDO          FAIR      64  32  29 W29G40    29.78R
FORT TOTTEN    NOT AVBL
ROLLA          FAIR      63  30  29 W28G38    29.78R
RUGBY          FAIR      64  32  29 W25G38    29.81R
 ***** THE ABOVE OBSERVATIONS ARE NON NWS ARE NOT QUALITY
        CONTROLLED AND MAY MIS-REPORT RAIN FOR SNOW...
$$

 *****  OTHER OBSERVATIONS SOUTHEAST NORTH DAKOTA *****

CITY           SKY/WX    TMP DP  RH WIND       PRES   REMARKS
COOPERSTOWN    NOT AVBL
VALLEY CITY    FAIR      72  41  33 W15G22    29.81R
OAKES            N/A     75  41  29 W17       29.83S
GWINNER        CLEAR     79  41  25 W17       29.82S
BUFFALO        NOT AVBL
WYNDMERE         N/A     79  41  25 W12         N/A
 ***** THE ABOVE OBSERVATIONS ARE NON NWS ARE NOT QUALITY
       CONTROLLED AND MAY MIS-REPORT RAIN FOR SNOW...
$$

  *****  WEATHER ACROSS NORTHERN MINNESOTA  *****

CITY           SKY/WX    TMP DP  RH WIND       PRES   REMARKS
FLAG ISLAND    CLOUDY    66  43  42 SW20G28   29.60F
WARROAD        PTSUNNY   70  48  46 W9        29.64F
ROSEAU         PTSUNNY   72  45  37 W14G26    29.65S
HALLOCK        SUNNY     73  34  23 W24G31    29.68R
THF RVR FALLS  SUNNY    N/A N/A N/A W22G31    29.71S
HALSTAD          N/A     75  37  25 W21         N/A
FOSSTON        SUNNY     72  43  35 SW17      29.75S
BAUDETTE       PTSUNNY   72  41  32 W8G21     29.64F
WASKISH        MOSUNNY   68  43  40 SW16      29.69F
CROOKSTON      SUNNY     73  41  31 W22       29.74R
$$
  *****  WEATHER ACROSS CENTRAL AND WEST MINNESOTA  *****

CITY           SKY/WX    TMP DP  RH WIND       PRES   REMARKS
BEMIDJI        SUNNY     71  40  32 W17       29.74S
PARK RAPIDS    SUNNY     71  38  29 W15       29.77F
WADENA         SUNNY     68  43  40 W12       29.80R
DETROIT LAKES  SUNNY     68  41  37 W7        29.81R
MOORHEAD       SUNNY     77  28  16 W15       29.78S
FERGUS FALLS   MOSUNNY   73  36  25 W10       29.81S
ELBOW LAKE     FAIR      73  41  31 W15       29.82S
MORRIS MN      MOSUNNY   75  43  31 W14       29.82S
STAPLES        SUNNY     70  36  28 W12G18    29.80R
WHEATON        MOSUNNY   72  41  33 W9        29.84R
$$
  *****  WEATHER ELSEWHERE ACROSS MINNESOTA  *****

CITY           SKY/WX    TMP DP  RH WIND       PRES   REMARKS
DULUTH         MOSUNNY   68  50  52 SW13      29.76S
INTRNTL FALLS  CLOUDY    70  40  33 SW13G21   29.66F
ELY            PTSUNNY   70  41  35 SW8       29.71F
CLOQUET        SUNNY     68  48  49 SW8       29.77S
BRAINERD       SUNNY     70  42  36 W13       29.79F
HIBBING        SUNNY     71  40  32 W9        29.73F
ALEXANDRIA     MOSUNNY   72  42  34 W13       29.84R
SAINT CLOUD    MOSUNNY   70  50  49 SW7       29.82S
MINNEAPOLIS    PTSUNNY   66  54  65 SW6       29.83R
$$

  *****  WEATHER ACROSS SOUTH DAKOTA  *****

CITY           SKY/WX    TMP DP  RH WIND       PRES   REMARKS
SIOUX FALLS    CLOUDY    75  38  26 NW10      29.88S
BROOKINGS      NOT AVBL
WATERTOWN      MOSUNNY   72  39  30 NW10      29.88S
HURON          SUNNY     81  33  17 NW13      29.88R
SISSETON         N/A     76  39  26 NW12      29.82S
ABERDEEN       MOSUNNY   79  38  22 W13       29.86S
MITCHELL       SUNNY     78  36  21 NW6       29.90R HAZE
PIERRE         SUNNY     78  31  17 NW10      29.91R
MOBRIDGE       SUNNY     74  39  28 NW13      29.90R
RAPID CITY     SUNNY     70  38  31 N12       30.01R
$$

  *****  SOME WEATHER IN NEARBY STATES *****

CITY           SKY/WX    TMP DP  RH WIND       PRES   REMARKS
GLASGOW MT     MOSUNNY   59  28  30 NW18      29.97S
GREAT FALLS MT PTSUNNY   56  34  43 SW15      30.01F
CHEYENNE WY    SUNNY     76  20  12 W22G28    30.17F
SCOTTSBLUFF NE SUNNY     82 N/A N/A NW21G31   30.02F
OMAHA NE       CLOUDY    75  58  55 CALM      29.90S
DES MOINES IA  CLOUDY    67  61  81 SW9       29.89S
DAVENPORT IA   PTSUNNY   68  52  56 S15       29.94F
CHICAGO IL     PTSUNNY   66  46  48 W8        29.96S
EAU CLAIRE WI  CLOUDY    59  52  77 S9        29.85S
LA CROSSE WI   CLOUDY    62  56  80 S9        29.87R
$$

  *****  SOME NATIONAL WEATHER *****

CITY           SKY/WX    TMP DP  RH WIND       PRES   REMARKS
LA GUARDIA NY  CLOUDY    60  46  59 NE9       29.77R
RALEIGH NC     PTSUNNY   68  47  46 SW5       29.96S
ATLANTA GA     MOSUNNY   74  41  30 N6        30.01S
NEW ORLEANS LA MOSUNNY   76  48  37 N6        30.05S
OKLAHOMA CITY  MOSUNNY   85  61  44 S15       30.02F
ALBUQUERQUE NM SUNNY     77  33  20 W7        30.26F
SALT LAKE CITY SUNNY     78  29  16 S15       30.10F
LOS ANGELES CA MOSUNNY   76  63  64 W9        29.94F
BOISE ID       SUNNY     65  47  52 SE5       30.02F
SEATTLE WA     CLOUDY    56  45  66 N9        29.97F
$$

*** WEATHER ACROSS MANITOBA...SASKATCHEWAN AND ONTARIO ***
                ***ONTARIO***

CITY           SKY/WX    TMP DP  RH WIND       PRES   REMARKS
GERALDTON      CLOUDY    48  46  93 S8        29.69F FOG
THUNDER BAY    PTSUNNY   61  48  63 VRB10     29.69F
SIOUX LOOKOUT  PTSUNNY   59  43  55 SW9       29.60S
TORONTO        MOSUNNY   61  41  48 W9        29.93S
BIG TROUT LK   SUNNY     54  46  76 SE9       29.43F
PICKLE LAKE    PTSUNNY   61  45  55 S8        29.52F
DRYDEN         CLOUDY    61  43  51 SW12G18   29.59F
KENORA         NOT AVBL
$$
                *** MANITOBA***

CITY           SKY/WX    TMP DP  RH WIND       PRES   REMARKS
BRANDON        MOSUNNY   63  32  31 W28G36    29.73R
DAUPHIN        NOT AVBL
ISLAND LAKE    LGT RAIN  50  48  93 S8        29.40S
PILOT MOUND      N/A     63  32  31 W20G29      N/A
THE PAS        CLOUDY    46  37  71 W17G25    29.53R
THOMPSON       LGT RAIN  43  41  93 W10       29.39  FOG
WINNIPEG       MOSUNNY   68  37  32 W25G38    29.62R
LYNN LAKE      CLOUDY    43  39  87 W13G18    29.35R
CHURCHILL      FOG       37  37 100 E10       29.42F VSB 1
GILLAM         CLOUDY    43  41  93 NE3       29.39F
$$
                ***SASKATCHEWAN***

CITY           SKY/WX    TMP DP  RH WIND       PRES   REMARKS
ESTEVAN        MOSUNNY   61  32  33 W21G33    29.86R
KINDERSLEY     MOSUNNY   54  28  37 W16G26    29.89R
LLOYDMINSTER   PTSUNNY   48  23  37 W22G33    29.80R
PRINCE ALBERT  PTSUNNY   50  34  53 W13G25    29.70R
REGINA         MOSUNNY   55  32  41 W25G36    29.85R
YORKTON        SUNNY     55  32  41 W28G39    29.69R



USA.gov is the U.S. government's official web portal to all federal, state and local government web resources and services.